Time,TemperatureF,DewpointF,PressureIn,WindDirection,WindDirectionDegrees,WindSpeedMPH,WindSpeedGustMPH,Humidity,HourlyPrecipIn,Conditions,Clouds,dailyrainin,SoftwareType,DateUTC
2013-08-02 00:08:00,82.7,69.3,29.85,SSE,155,1.0,3.0,64,0.00,,,0.00,Wunderground v.1.15,2013-08-02 05:08:00,
2013-08-02 00:14:00,82.6,69.2,29.85,SSE,155,1.0,1.0,64,0.00,,,0.00,Wunderground v.1.15,2013-08-02 05:14:00,
2013-08-02 00:20:00,82.5,69.5,29.86,SSE,155,1.0,1.0,65,0.00,,,0.00,Wunderground v.1.15,2013-08-02 05:20:00,
2013-08-02 00:26:00,82.6,69.2,29.86,SE,140,1.0,3.0,64,0.00,,,0.00,Wunderground v.1.15,2013-08-02 05:26:00,
2013-08-02 00:32:00,82.7,69.3,29.86,SE,144,1.0,2.0,64,0.00,,,0.00,Wunderground v.1.15,2013-08-02 05:32:00,
2013-08-02 00:39:00,82.6,69.2,29.85,SE,140,1.0,3.0,64,0.00,,,0.00,Wunderground v.1.15,2013-08-02 05:39:00,
2013-08-02 00:44:00,82.5,69.5,29.85,SE,140,1.0,2.0,65,0.00,,,0.00,Wunderground v.1.15,2013-08-02 05:44:00,
2013-08-02 00:50:00,82.4,69.4,29.86,SE,140,0.0,1.0,65,0.00,,,0.00,Wunderground v.1.15,2013-08-02 05:50:00,
2013-08-02 00:56:00,82.3,69.4,29.85,SE,143,1.0,5.0,65,0.00,,,0.00,Wunderground v.1.15,2013-08-02 05:56:00,
2013-08-02 01:02:00,82.3,69.8,29.85,SSE,166,1.0,2.0,66,0.00,,,0.00,Wunderground v.1.15,2013-08-02 06:02:00,
2013-08-02 01:08:00,82.1,69.6,29.85,SSE,166,1.0,2.0,66,0.00,,,0.00,Wunderground v.1.15,2013-08-02 06:08:00,
2013-08-02 01:16:00,81.9,69.4,29.84,SSE,162,1.0,2.0,66,0.00,,,0.00,Wunderground v.1.15,2013-08-02 06:16:00,
2013-08-02 01:22:00,81.7,69.7,29.83,SSE,163,1.0,2.0,67,0.00,,,0.00,Wunderground v.1.15,2013-08-02 06:22:00,
2013-08-02 01:28:00,81.6,69.6,29.83,SSE,152,2.0,3.0,67,0.00,,,0.00,Wunderground v.1.15,2013-08-02 06:28:00,
2013-08-02 01:34:00,81.5,69.9,29.82,SSE,167,2.0,4.0,68,0.00,,,0.00,Wunderground v.1.15,2013-08-02 06:34:00,
2013-08-02 01:40:00,81.5,69.9,29.82,ESE,114,2.0,4.0,68,0.00,,,0.00,Wunderground v.1.15,2013-08-02 06:40:00,
2013-08-02 01:46:00,81.5,69.9,29.81,SSE,153,3.0,6.0,68,0.00,,,0.00,Wunderground v.1.15,2013-08-02 06:46:00,
2013-08-02 01:52:00,81.4,69.8,29.81,SSE,167,3.0,3.0,68,0.00,,,0.00,Wunderground v.1.15,2013-08-02 06:52:00,
2013-08-02 02:00:00,81.2,70.1,29.81,SE,136,3.0,3.0,69,0.00,,,0.00,Wunderground v.1.15,2013-08-02 07:00:00,
2013-08-02 02:06:00,81.1,70.0,29.80,South,186,3.0,5.0,69,0.00,,,0.00,Wunderground v.1.15,2013-08-02 07:06:00,
2013-08-02 02:12:00,80.9,70.2,29.80,SE,140,3.0,4.0,70,0.00,,,0.00,Wunderground v.1.15,2013-08-02 07:12:00,
2013-08-02 02:20:00,80.8,70.5,29.80,SSE,165,3.0,4.0,71,0.00,,,0.00,Wunderground v.1.15,2013-08-02 07:20:00,
2013-08-02 02:26:00,80.7,70.4,29.80,South,175,3.0,4.0,71,0.00,,,0.00,Wunderground v.1.15,2013-08-02 07:26:00,
2013-08-02 02:32:00,80.5,70.6,29.80,SE,142,2.0,3.0,72,0.00,,,0.00,Wunderground v.1.15,2013-08-02 07:32:00,
2013-08-02 02:40:00,80.4,70.9,29.80,South,174,2.0,2.0,73,0.00,,,0.00,Wunderground v.1.15,2013-08-02 07:40:00,
2013-08-02 02:46:00,80.3,70.9,29.81,South,169,1.0,2.0,73,0.00,,,0.00,Wunderground v.1.15,2013-08-02 07:46:00,
2013-08-02 02:52:00,80.1,71.1,29.80,SSE,161,1.0,10.0,74,0.00,,,0.00,Wunderground v.1.15,2013-08-02 07:52:00,
2013-08-02 03:00:00,79.9,71.3,29.80,SSE,155,2.0,2.0,75,0.00,,,0.00,Wunderground v.1.15,2013-08-02 08:00:00,
2013-08-02 03:06:00,79.7,71.5,29.80,SE,139,2.0,10.0,76,0.00,,,0.00,Wunderground v.1.15,2013-08-02 08:06:00,
2013-08-02 03:12:00,79.6,71.4,29.80,South,173,2.0,6.0,76,0.00,,,0.00,Wunderground v.1.15,2013-08-02 08:12:00,
2013-08-02 03:18:00,79.4,71.6,29.81,SSE,160,3.0,7.0,77,0.00,,,0.00,Wunderground v.1.15,2013-08-02 08:18:00,
2013-08-02 03:24:00,79.3,71.8,29.80,SSE,168,2.0,5.0,78,0.00,,,0.00,Wunderground v.1.15,2013-08-02 08:24:00,
2013-08-02 03:30:00,79.3,71.8,29.81,South,169,1.0,1.0,78,0.00,,,0.00,Wunderground v.1.15,2013-08-02 08:30:00,
2013-08-02 03:36:00,79.2,71.7,29.80,SSE,165,1.0,1.0,78,0.00,,,0.00,Wunderground v.1.15,2013-08-02 08:36:00,
2013-08-02 03:42:00,79.0,71.9,29.80,SSE,159,2.0,2.0,79,0.00,,,0.00,Wunderground v.1.15,2013-08-02 08:42:00,
2013-08-02 03:48:00,78.8,71.7,29.80,SSE,163,2.0,2.0,79,0.00,,,0.00,Wunderground v.1.15,2013-08-02 08:48:00,
2013-08-02 03:56:00,78.7,72.0,29.81,SSE,163,1.0,5.0,80,0.00,,,0.00,Wunderground v.1.15,2013-08-02 08:56:00,
2013-08-02 04:02:00,78.7,72.0,29.81,SSE,165,1.0,2.0,80,0.00,,,0.00,Wunderground v.1.15,2013-08-02 09:02:00,
2013-08-02 04:08:00,78.6,72.3,29.80,SSE,157,1.0,2.0,81,0.00,,,0.00,Wunderground v.1.15,2013-08-02 09:08:00,
2013-08-02 04:16:00,78.4,72.1,29.81,SSE,155,1.0,5.0,81,0.00,,,0.00,Wunderground v.1.15,2013-08-02 09:16:00,
2013-08-02 04:22:00,78.3,72.3,29.80,SSE,163,1.0,2.0,82,0.00,,,0.00,Wunderground v.1.15,2013-08-02 09:22:00,
2013-08-02 04:30:00,78.2,72.3,29.80,SSE,161,1.0,1.0,82,0.00,,,0.00,Wunderground v.1.15,2013-08-02 09:30:00,
2013-08-02 04:36:00,78.2,72.3,29.80,SSE,167,1.0,1.0,82,0.00,,,0.00,Wunderground v.1.15,2013-08-02 09:36:00,
2013-08-02 04:42:00,78.2,72.3,29.80,SSE,165,1.0,1.0,82,0.00,,,0.00,Wunderground v.1.15,2013-08-02 09:42:00,
2013-08-02 04:50:00,78.2,72.3,29.79,SSE,166,0.0,0.0,82,0.00,,,0.00,Wunderground v.1.15,2013-08-02 09:50:00,
2013-08-02 04:56:00,78.2,72.3,29.79,South,178,1.0,1.0,82,0.00,,,0.00,Wunderground v.1.15,2013-08-02 09:56:00,
2013-08-02 05:02:00,78.2,72.3,29.79,South,172,1.0,6.0,82,0.00,,,0.00,Wunderground v.1.15,2013-08-02 10:02:00,
2013-08-02 05:14:00,78.2,72.3,29.79,SSE,159,1.0,4.0,82,0.00,,,0.00,Wunderground v.1.15,2013-08-02 10:14:00,
2013-08-02 05:20:00,78.1,72.5,29.79,SSE,160,2.0,4.0,83,0.00,,,0.00,Wunderground v.1.15,2013-08-02 10:20:00,
2013-08-02 05:26:00,78.1,72.5,29.79,SSE,162,2.0,2.0,83,0.00,,,0.00,Wunderground v.1.15,2013-08-02 10:26:00,
2013-08-02 05:32:00,78.0,72.4,29.79,SSE,158,2.0,2.0,83,0.00,,,0.00,Wunderground v.1.15,2013-08-02 10:32:00,
2013-08-02 05:39:00,78.0,72.4,29.79,SSE,167,3.0,3.0,83,0.00,,,0.00,Wunderground v.1.15,2013-08-02 10:39:00,
2013-08-02 05:44:00,78.0,72.4,29.80,SSE,155,2.0,3.0,83,0.00,,,0.00,Wunderground v.1.15,2013-08-02 10:44:00,
2013-08-02 05:52:00,77.9,72.3,29.80,SSE,157,1.0,2.0,83,0.00,,,0.00,Wunderground v.1.15,2013-08-02 10:52:00,
2013-08-02 06:00:00,77.9,72.7,29.80,SE,134,1.0,1.0,84,0.00,,,0.00,Wunderground v.1.15,2013-08-02 11:00:00,
2013-08-02 06:06:00,77.9,72.7,29.80,SSE,163,1.0,4.0,84,0.00,,,0.00,Wunderground v.1.15,2013-08-02 11:06:00,
2013-08-02 06:12:00,77.8,72.6,29.80,SSE,157,1.0,3.0,84,0.00,,,0.00,Wunderground v.1.15,2013-08-02 11:12:00,
2013-08-02 06:19:00,77.8,72.6,29.80,South,169,2.0,3.0,84,0.00,,,0.00,Wunderground v.1.15,2013-08-02 11:19:00,
2013-08-02 06:30:00,77.8,72.6,29.80,South,173,1.0,1.0,84,0.00,,,0.00,Wunderground v.1.15,2013-08-02 11:30:00,
2013-08-02 06:36:00,77.8,72.6,29.81,SSE,165,2.0,2.0,84,0.00,,,0.00,Wunderground v.1.15,2013-08-02 11:36:00,
2013-08-02 06:42:00,77.9,72.7,29.80,SSE,164,1.0,3.0,84,0.00,,,0.00,Wunderground v.1.15,2013-08-02 11:42:00,
2013-08-02 06:48:00,77.9,72.7,29.80,SSE,150,2.0,3.0,84,0.00,,,0.00,Wunderground v.1.15,2013-08-02 11:48:00,
2013-08-02 06:54:00,78.0,72.4,29.81,SSE,165,2.0,4.0,83,0.00,,,0.00,Wunderground v.1.15,2013-08-02 11:54:00,
2013-08-02 07:00:00,78.0,72.4,29.81,SSE,152,2.0,2.0,83,0.00,,,0.00,Wunderground v.1.15,2013-08-02 12:00:00,
2013-08-02 07:06:00,78.1,72.5,29.81,SSE,165,1.0,3.0,83,0.00,,,0.00,Wunderground v.1.15,2013-08-02 12:06:00,
2013-08-02 07:12:00,78.0,72.4,29.80,SSE,158,2.0,5.0,83,0.00,,,0.00,Wunderground v.1.15,2013-08-02 12:12:00,
2013-08-02 07:18:00,77.9,72.7,29.80,South,175,3.0,5.0,84,0.00,,,0.00,Wunderground v.1.15,2013-08-02 12:18:00,
2013-08-02 07:30:00,77.8,72.6,29.79,SSE,158,3.0,4.0,84,0.00,,,0.00,Wunderground v.1.15,2013-08-02 12:30:00,
2013-08-02 07:36:00,77.9,72.7,29.80,SSE,151,2.0,4.0,84,0.00,,,0.00,Wunderground v.1.15,2013-08-02 12:36:00,
2013-08-02 07:42:00,78.0,72.8,29.79,South,185,3.0,3.0,84,0.00,,,0.00,Wunderground v.1.15,2013-08-02 12:42:00,
2013-08-02 07:50:00,78.3,72.7,29.80,South,173,3.0,5.0,83,0.00,,,0.00,Wunderground v.1.15,2013-08-02 12:50:00,
2013-08-02 07:56:00,78.4,72.8,29.79,South,171,2.0,5.0,83,0.00,,,0.00,Wunderground v.1.15,2013-08-02 12:56:00,
2013-08-02 08:02:00,78.5,72.9,29.79,SSE,157,2.0,3.0,83,0.00,,,0.00,Wunderground v.1.15,2013-08-02 13:02:00,
2013-08-02 08:10:00,78.5,72.9,29.78,SSW,213,3.0,3.0,83,0.00,,,0.00,Wunderground v.1.15,2013-08-02 13:10:00,
2013-08-02 08:16:00,78.7,73.1,29.79,SSE,150,3.0,3.0,83,0.00,,,0.00,Wunderground v.1.15,2013-08-02 13:16:00,
2013-08-02 08:22:00,78.7,73.1,29.79,SSE,154,3.0,4.0,83,0.00,,,0.00,Wunderground v.1.15,2013-08-02 13:22:00,
2013-08-02 08:30:00,78.9,72.9,29.79,SSE,148,2.0,2.0,82,0.00,,,0.00,Wunderground v.1.15,2013-08-02 13:30:00,
2013-08-02 08:36:00,79.1,73.1,29.80,SSE,158,2.0,4.0,82,0.00,,,0.00,Wunderground v.1.15,2013-08-02 13:36:00,
2013-08-02 08:42:00,79.1,73.1,29.79,South,179,3.0,5.0,82,0.00,,,0.00,Wunderground v.1.15,2013-08-02 13:42:00,
2013-08-02 08:48:00,79.3,73.3,29.79,SE,136,3.0,5.0,82,0.00,,,0.00,Wunderground v.1.15,2013-08-02 13:48:00,
2013-08-02 08:56:00,79.6,73.3,29.79,SSE,161,3.0,5.0,81,0.00,,,0.00,Wunderground v.1.15,2013-08-02 13:56:00,
2013-08-02 09:02:00,79.7,73.3,29.79,South,172,2.0,4.0,81,0.00,,,0.00,Wunderground v.1.15,2013-08-02 14:02:00,
2013-08-02 09:12:00,80.0,73.6,29.80,SSE,155,2.0,3.0,81,0.00,,,0.00,Wunderground v.1.15,2013-08-02 14:12:00,
2013-08-02 09:18:00,79.8,73.4,29.80,South,175,3.0,3.0,81,0.00,,,0.00,Wunderground v.1.15,2013-08-02 14:18:00,
2013-08-02 09:26:00,79.8,73.4,29.80,SSE,157,4.0,4.0,81,0.00,,,0.00,Wunderground v.1.15,2013-08-02 14:26:00,
2013-08-02 09:32:00,79.7,73.3,29.80,South,169,3.0,3.0,81,0.00,,,0.00,Wunderground v.1.15,2013-08-02 14:32:00,
2013-08-02 09:40:00,79.8,73.4,29.81,South,172,3.0,4.0,81,0.00,,,0.00,Wunderground v.1.15,2013-08-02 14:40:00,
2013-08-02 09:46:00,79.8,73.4,29.81,SSE,157,2.0,3.0,81,0.00,,,0.00,Wunderground v.1.15,2013-08-02 14:46:00,
2013-08-02 09:52:00,79.8,73.4,29.81,SSE,153,2.0,4.0,81,0.00,,,0.00,Wunderground v.1.15,2013-08-02 14:52:00,
2013-08-02 10:00:00,79.9,73.9,29.81,SSE,148,2.0,2.0,82,0.00,,,0.00,Wunderground v.1.15,2013-08-02 15:00:00,
2013-08-02 10:06:00,80.0,74.0,29.81,SSE,163,2.0,5.0,82,0.00,,,0.00,Wunderground v.1.15,2013-08-02 15:06:00,
2013-08-02 10:12:00,80.1,73.7,29.81,SSE,163,2.0,3.0,81,0.00,,,0.00,Wunderground v.1.15,2013-08-02 15:12:00,
2013-08-02 10:18:00,80.3,73.9,29.82,SE,134,2.0,3.0,81,0.00,,,0.00,Wunderground v.1.15,2013-08-02 15:18:00,
2013-08-02 10:26:00,80.7,74.3,29.82,SSE,150,1.0,1.0,81,0.00,,,0.00,Wunderground v.1.15,2013-08-02 15:26:00,
2013-08-02 10:32:00,80.9,74.1,29.82,SSE,157,1.0,1.0,80,0.00,,,0.00,Wunderground v.1.15,2013-08-02 15:32:00,
2013-08-02 10:40:00,80.9,74.1,29.82,SSE,159,2.0,2.0,80,0.00,,,0.00,Wunderground v.1.15,2013-08-02 15:40:00,
2013-08-02 10:46:00,80.9,74.1,29.83,SE,133,1.0,2.0,80,0.00,,,0.00,Wunderground v.1.15,2013-08-02 15:46:00,
2013-08-02 10:52:00,80.8,74.0,29.84,SE,133,1.0,1.0,80,0.00,,,0.00,Wunderground v.1.15,2013-08-02 15:52:00,
2013-08-02 11:00:00,81.0,74.2,29.84,SE,134,0.0,0.0,80,0.00,,,0.00,Wunderground v.1.15,2013-08-02 16:00:00,
2013-08-02 11:06:00,81.2,74.4,29.85,SE,133,0.0,0.0,80,0.00,,,0.00,Wunderground v.1.15,2013-08-02 16:06:00,
2013-08-02 11:12:00,81.5,74.4,29.87,North,11,2.0,6.0,79,0.00,,,0.00,Wunderground v.1.15,2013-08-02 16:12:00,
2013-08-02 11:20:00,81.1,74.3,29.87,North,350,6.0,6.0,80,0.00,,,0.00,Wunderground v.1.15,2013-08-02 16:20:00,
2013-08-02 11:26:00,80.4,74.0,29.87,NNE,28,5.0,6.0,81,0.00,,,0.00,Wunderground v.1.15,2013-08-02 16:26:00,
2013-08-02 11:32:00,79.6,73.6,29.87,ENE,65,5.0,5.0,82,0.00,,,0.00,Wunderground v.1.15,2013-08-02 16:32:00,
2013-08-02 11:40:00,79.1,73.5,29.85,NNE,23,3.0,3.0,83,0.00,,,0.00,Wunderground v.1.15,2013-08-02 16:40:00,
2013-08-02 11:46:00,79.4,73.8,29.85,ENE,70,2.0,3.0,83,0.00,,,0.00,Wunderground v.1.15,2013-08-02 16:46:00,
2013-08-02 11:52:00,80.0,74.0,29.84,NE,49,1.0,1.0,82,0.00,,,0.00,Wunderground v.1.15,2013-08-02 16:52:00,
2013-08-02 12:00:00,80.4,74.0,29.83,SE,132,1.0,4.0,81,0.00,,,0.00,Wunderground v.1.15,2013-08-02 17:00:00,
2013-08-02 12:08:00,80.7,74.3,29.82,East,83,1.0,5.0,81,0.00,,,0.00,Wunderground v.1.15,2013-08-02 17:08:00,
2013-08-02 12:16:00,81.0,74.2,29.82,ESE,103,1.0,2.0,80,0.00,,,0.00,Wunderground v.1.15,2013-08-02 17:16:00,
2013-08-02 12:22:00,81.3,74.9,29.82,SE,140,1.0,3.0,81,0.00,,,0.00,Wunderground v.1.15,2013-08-02 17:22:00,
2013-08-02 12:28:00,81.6,74.5,29.82,SE,140,1.0,3.0,79,0.00,,,0.00,Wunderground v.1.15,2013-08-02 17:28:00,
2013-08-02 12:34:00,81.8,74.6,29.82,SE,130,1.0,2.0,79,0.00,,,0.00,Wunderground v.1.15,2013-08-02 17:34:00,
2013-08-02 12:40:00,81.9,74.7,29.81,East,80,1.0,3.0,79,0.00,,,0.00,Wunderground v.1.15,2013-08-02 17:40:00,
2013-08-02 12:46:00,82.1,74.9,29.81,SE,134,1.0,4.0,79,0.00,,,0.00,Wunderground v.1.15,2013-08-02 17:46:00,
2013-08-02 12:52:00,82.1,74.9,29.80,SE,144,2.0,5.0,79,0.00,,,0.00,Wunderground v.1.15,2013-08-02 17:52:00,
2013-08-02 13:00:00,82.3,75.1,29.80,SE,128,2.0,4.0,79,0.00,,,0.00,Wunderground v.1.15,2013-08-02 18:00:00,
2013-08-02 13:06:00,83.0,75.8,29.80,SE,130,2.0,4.0,79,0.00,,,0.00,Wunderground v.1.15,2013-08-02 18:06:00,
2013-08-02 13:12:00,83.7,75.7,29.79,SE,125,1.0,2.0,77,0.00,,,0.00,Wunderground v.1.15,2013-08-02 18:12:00,
2013-08-02 13:20:00,84.4,76.0,29.79,SE,144,2.0,2.0,76,0.00,,,0.00,Wunderground v.1.15,2013-08-02 18:20:00,
2013-08-02 13:26:00,85.5,76.7,29.78,SSE,155,2.0,4.0,75,0.00,,,0.00,Wunderground v.1.15,2013-08-02 18:26:00,
2013-08-02 13:32:00,86.0,76.3,29.78,SSE,152,3.0,3.0,73,0.00,,,0.00,Wunderground v.1.15,2013-08-02 18:32:00,
2013-08-02 13:38:00,86.3,77.0,29.77,SSE,148,3.0,3.0,74,0.00,,,0.00,Wunderground v.1.15,2013-08-02 18:38:00,
2013-08-02 13:44:00,87.1,77.0,29.77,SE,137,3.0,6.0,72,0.00,,,0.00,Wunderground v.1.15,2013-08-02 18:44:00,
2013-08-02 13:50:00,87.5,76.9,29.77,South,182,3.0,3.0,71,0.00,,,0.00,Wunderground v.1.15,2013-08-02 18:50:00,
2013-08-02 13:56:00,87.3,77.2,29.76,SE,145,3.0,3.0,72,0.00,,,0.00,Wunderground v.1.15,2013-08-02 18:56:00,
2013-08-02 14:02:00,87.6,77.0,29.76,South,177,3.0,3.0,71,0.00,,,0.00,Wunderground v.1.15,2013-08-02 19:02:00,
2013-08-02 14:11:00,87.7,77.1,29.75,SE,131,4.0,4.0,71,0.00,,,0.00,Wunderground v.1.15,2013-08-02 19:11:00,
2013-08-02 14:16:00,88.0,78.3,29.75,South,173,3.0,5.0,73,0.00,,,0.00,Wunderground v.1.15,2013-08-02 19:16:00,
2013-08-02 14:22:00,88.5,77.9,29.75,SE,131,3.0,3.0,71,0.00,,,0.00,Wunderground v.1.15,2013-08-02 19:22:00,
2013-08-02 14:30:00,88.1,77.9,29.75,South,171,4.0,7.0,72,0.00,,,0.00,Wunderground v.1.15,2013-08-02 19:30:00,
2013-08-02 14:36:00,88.2,78.0,29.75,SSE,163,3.0,3.0,72,0.00,,,0.00,Wunderground v.1.15,2013-08-02 19:36:00,
2013-08-02 14:42:00,88.5,78.3,29.75,SSE,168,2.0,3.0,72,0.00,,,0.00,Wunderground v.1.15,2013-08-02 19:42:00,
2013-08-02 14:50:00,88.7,78.5,29.75,SSE,163,2.0,3.0,72,0.00,,,0.00,Wunderground v.1.15,2013-08-02 19:50:00,
2013-08-02 14:56:00,88.9,78.7,29.75,SSE,163,2.0,4.0,72,0.00,,,0.00,Wunderground v.1.15,2013-08-02 19:56:00,
2013-08-02 15:02:00,89.5,78.4,29.74,SE,138,2.0,4.0,70,0.00,,,0.00,Wunderground v.1.15,2013-08-02 20:02:00,
2013-08-02 15:10:00,89.7,78.6,29.74,SSE,159,2.0,2.0,70,0.00,,,0.00,Wunderground v.1.15,2013-08-02 20:10:00,
2013-08-02 15:16:00,90.1,79.0,29.74,SSE,153,2.0,2.0,70,0.00,,,0.00,Wunderground v.1.15,2013-08-02 20:16:00,
2013-08-02 15:22:00,90.7,78.7,29.74,SSE,164,2.0,3.0,68,0.00,,,0.00,Wunderground v.1.15,2013-08-02 20:22:00,
2013-08-02 15:30:00,91.3,78.8,29.74,South,169,2.0,2.0,67,0.00,,,0.00,Wunderground v.1.15,2013-08-02 20:30:00,
2013-08-02 15:36:00,91.7,78.7,29.74,SSE,161,3.0,3.0,66,0.00,,,0.00,Wunderground v.1.15,2013-08-02 20:36:00,
2013-08-02 15:42:00,92.4,78.9,29.73,South,175,2.0,2.0,65,0.00,,,0.00,Wunderground v.1.15,2013-08-02 20:42:00,
2013-08-02 15:50:00,92.9,79.4,29.73,SSE,153,2.0,2.0,65,0.00,,,0.00,Wunderground v.1.15,2013-08-02 20:50:00,
2013-08-02 15:56:00,92.5,78.1,29.73,SSE,163,4.0,4.0,63,0.00,,,0.00,Wunderground v.1.15,2013-08-02 20:56:00,
2013-08-02 16:02:00,92.8,78.3,29.73,South,169,4.0,4.0,63,0.00,,,0.00,Wunderground v.1.15,2013-08-02 21:02:00,
2013-08-02 16:10:00,94.0,78.0,29.73,SSE,165,1.0,7.0,60,0.00,,,0.00,Wunderground v.1.15,2013-08-02 21:10:00,
2013-08-02 16:16:00,94.4,78.4,29.72,SE,146,2.0,7.0,60,0.00,,,0.00,Wunderground v.1.15,2013-08-02 21:16:00,
2013-08-02 16:22:00,94.8,77.7,29.72,SSE,162,2.0,5.0,58,0.00,,,0.00,Wunderground v.1.15,2013-08-02 21:22:00,
2013-08-02 16:30:00,95.1,78.5,29.72,SE,145,2.0,2.0,59,0.00,,,0.00,Wunderground v.1.15,2013-08-02 21:30:00,
2013-08-02 16:36:00,95.1,77.5,29.73,SSE,150,2.0,4.0,57,0.00,,,0.00,Wunderground v.1.15,2013-08-02 21:36:00,
2013-08-02 16:42:00,95.0,77.9,29.72,SE,145,3.0,5.0,58,0.00,,,0.00,Wunderground v.1.15,2013-08-02 21:42:00,
2013-08-02 16:50:00,95.3,77.7,29.72,SSE,166,3.0,3.0,57,0.00,,,0.00,Wunderground v.1.15,2013-08-02 21:50:00,
2013-08-02 16:56:00,94.7,77.1,29.72,SSE,152,3.0,7.0,57,0.00,,,0.00,Wunderground v.1.15,2013-08-02 21:56:00,
2013-08-02 17:02:00,93.9,76.9,29.71,South,169,2.0,3.0,58,0.00,,,0.00,Wunderground v.1.15,2013-08-02 22:02:00,
2013-08-02 17:08:00,93.3,76.3,29.72,South,175,3.0,6.0,58,0.00,,,0.00,Wunderground v.1.15,2013-08-02 22:08:00,
2013-08-02 17:14:00,93.2,76.2,29.72,SSE,157,3.0,3.0,58,0.00,,,0.00,Wunderground v.1.15,2013-08-02 22:14:00,
2013-08-02 17:20:00,93.2,76.7,29.71,SE,138,2.0,2.0,59,0.00,,,0.00,Wunderground v.1.15,2013-08-02 22:20:00,
2013-08-02 17:26:00,93.2,76.7,29.71,South,176,2.0,2.0,59,0.00,,,0.00,Wunderground v.1.15,2013-08-02 22:26:00,
2013-08-02 17:32:00,93.3,76.8,29.71,SSE,156,3.0,3.0,59,0.00,,,0.00,Wunderground v.1.15,2013-08-02 22:32:00,
2013-08-02 17:40:00,94.0,77.0,29.71,SSE,165,1.0,2.0,58,0.00,,,0.00,Wunderground v.1.15,2013-08-02 22:40:00,
2013-08-02 17:50:00,94.1,77.1,29.71,South,180,3.0,3.0,58,0.00,,,0.00,Wunderground v.1.15,2013-08-02 22:50:00,
2013-08-02 17:56:00,94.4,77.9,29.71,SSE,152,2.0,3.0,59,0.00,,,0.00,Wunderground v.1.15,2013-08-02 22:56:00,
2013-08-02 18:02:00,94.5,77.4,29.71,SSE,167,2.0,3.0,58,0.00,,,0.00,Wunderground v.1.15,2013-08-02 23:02:00,
2013-08-02 18:12:00,94.7,78.1,29.70,South,173,3.0,3.0,59,0.00,,,0.00,Wunderground v.1.15,2013-08-02 23:12:00,
2013-08-02 18:18:00,95.0,77.9,29.71,South,175,2.0,3.0,58,0.00,,,0.00,Wunderground v.1.15,2013-08-02 23:18:00,
2013-08-02 18:24:00,95.1,78.0,29.71,SSE,168,2.0,2.0,58,0.00,,,0.00,Wunderground v.1.15,2013-08-02 23:24:00,
2013-08-02 18:30:00,94.8,77.7,29.71,South,176,2.0,6.0,58,0.00,,,0.00,Wunderground v.1.15,2013-08-02 23:30:00,
2013-08-02 18:36:00,94.7,77.6,29.71,SSE,163,3.0,3.0,58,0.00,,,0.00,Wunderground v.1.15,2013-08-02 23:36:00,
2013-08-02 18:42:00,94.8,77.7,29.71,SSE,163,2.0,4.0,58,0.00,,,0.00,Wunderground v.1.15,2013-08-02 23:42:00,
2013-08-02 18:48:00,94.8,77.7,29.71,SSE,167,2.0,5.0,58,0.00,,,0.00,Wunderground v.1.15,2013-08-02 23:48:00,
2013-08-02 18:56:00,94.9,77.8,29.72,South,183,2.0,2.0,58,0.00,,,0.00,Wunderground v.1.15,2013-08-02 23:56:00,
2013-08-02 19:02:00,95.2,78.1,29.71,South,186,1.0,1.0,58,0.00,,,0.00,Wunderground v.1.15,2013-08-03 00:02:00,
2013-08-02 19:10:00,94.8,77.2,29.72,SSE,159,2.0,3.0,57,0.00,,,0.00,Wunderground v.1.15,2013-08-03 00:10:00,
2013-08-02 19:16:00,94.2,77.2,29.72,SSE,168,2.0,3.0,58,0.00,,,0.00,Wunderground v.1.15,2013-08-03 00:16:00,
2013-08-02 19:22:00,94.0,77.0,29.71,SSE,159,1.0,2.0,58,0.00,,,0.00,Wunderground v.1.15,2013-08-03 00:22:00,
2013-08-02 19:30:00,93.4,76.9,29.71,SSE,161,2.0,2.0,59,0.00,,,0.00,Wunderground v.1.15,2013-08-03 00:30:00,
2013-08-02 19:36:00,93.3,76.8,29.71,South,171,2.0,3.0,59,0.00,,,0.00,Wunderground v.1.15,2013-08-03 00:36:00,
2013-08-02 19:42:00,92.9,76.5,29.71,SSE,163,2.0,4.0,59,0.00,,,0.00,Wunderground v.1.15,2013-08-03 00:42:00,
2013-08-02 19:50:00,92.6,76.7,29.70,South,169,2.0,3.0,60,0.00,,,0.00,Wunderground v.1.15,2013-08-03 00:50:00,
2013-08-02 19:56:00,92.4,76.5,29.70,SSE,157,2.0,3.0,60,0.00,,,0.00,Wunderground v.1.15,2013-08-03 00:56:00,
2013-08-02 20:02:00,92.2,76.3,29.71,South,173,1.0,2.0,60,0.00,,,0.00,Wunderground v.1.15,2013-08-03 01:02:00,
2013-08-02 20:10:00,91.8,76.4,29.70,South,169,1.0,2.0,61,0.00,,,0.00,Wunderground v.1.15,2013-08-03 01:10:00,
2013-08-02 20:16:00,91.5,76.6,29.71,South,169,1.0,2.0,62,0.00,,,0.00,Wunderground v.1.15,2013-08-03 01:16:00,
2013-08-02 20:22:00,91.3,76.5,29.71,ESE,123,1.0,3.0,62,0.00,,,0.00,Wunderground v.1.15,2013-08-03 01:22:00,
2013-08-02 20:30:00,91.1,76.3,29.71,SSE,155,1.0,1.0,62,0.00,,,0.00,Wunderground v.1.15,2013-08-03 01:30:00,
2013-08-02 20:36:00,90.8,76.0,29.71,SSE,155,1.0,3.0,62,0.00,,,0.00,Wunderground v.1.15,2013-08-03 01:36:00,
2013-08-02 20:42:00,90.7,75.9,29.72,SSE,163,2.0,2.0,62,0.00,,,0.00,Wunderground v.1.15,2013-08-03 01:42:00,
2013-08-02 20:50:00,90.4,76.1,29.71,SSE,164,1.0,2.0,63,0.00,,,0.00,Wunderground v.1.15,2013-08-03 01:50:00,
2013-08-02 20:56:00,90.4,76.1,29.72,South,186,2.0,2.0,63,0.00,,,0.00,Wunderground v.1.15,2013-08-03 01:56:00,
2013-08-02 21:02:00,90.2,75.9,29.72,South,177,1.0,2.0,63,0.00,,,0.00,Wunderground v.1.15,2013-08-03 02:02:00,
2013-08-02 21:10:00,90.2,75.9,29.72,South,172,2.0,2.0,63,0.00,,,0.00,Wunderground v.1.15,2013-08-03 02:10:00,
2013-08-02 21:16:00,90.1,75.8,29.71,SSE,168,2.0,2.0,63,0.00,,,0.00,Wunderground v.1.15,2013-08-03 02:16:00,
2013-08-02 21:22:00,90.0,75.2,29.72,South,176,2.0,2.0,62,0.00,,,0.00,Wunderground v.1.15,2013-08-03 02:22:00,
2013-08-02 21:28:00,90.0,75.2,29.72,South,178,2.0,2.0,62,0.00,,,0.00,Wunderground v.1.15,2013-08-03 02:28:00,
2013-08-02 21:34:00,90.0,75.2,29.72,South,173,2.0,3.0,62,0.00,,,0.00,Wunderground v.1.15,2013-08-03 02:34:00,
2013-08-02 21:40:00,89.9,75.1,29.73,SSE,163,2.0,2.0,62,0.00,,,0.00,Wunderground v.1.15,2013-08-03 02:40:00,
2013-08-02 21:46:00,89.8,75.0,29.72,SSE,163,2.0,3.0,62,0.00,,,0.00,Wunderground v.1.15,2013-08-03 02:46:00,
2013-08-02 21:52:00,89.7,74.9,29.73,SSE,167,2.0,3.0,62,0.00,,,0.00,Wunderground v.1.15,2013-08-03 02:52:00,
2013-08-02 22:00:00,89.5,74.8,29.73,SSE,150,2.0,2.0,62,0.00,,,0.00,Wunderground v.1.15,2013-08-03 03:00:00,
2013-08-02 22:06:00,89.3,75.0,29.73,SSE,155,2.0,4.0,63,0.00,,,0.00,Wunderground v.1.15,2013-08-03 03:06:00,
2013-08-02 22:12:00,89.2,75.0,29.73,ESE,118,2.0,6.0,63,0.00,,,0.00,Wunderground v.1.15,2013-08-03 03:12:00,
2013-08-02 22:18:00,89.1,74.9,29.73,SSE,147,3.0,6.0,63,0.00,,,0.00,Wunderground v.1.15,2013-08-03 03:18:00,
2013-08-02 22:26:00,88.9,74.7,29.73,SSE,164,2.0,3.0,63,0.00,,,0.00,Wunderground v.1.15,2013-08-03 03:26:00,
2013-08-02 22:32:00,88.8,74.6,29.73,SSE,159,2.0,7.0,63,0.00,,,0.00,Wunderground v.1.15,2013-08-03 03:32:00,
2013-08-02 22:38:00,88.8,74.1,29.73,SSE,168,3.0,7.0,62,0.00,,,0.00,Wunderground v.1.15,2013-08-03 03:38:00,
2013-08-02 22:44:00,88.7,74.0,29.74,SSE,161,2.0,3.0,62,0.00,,,0.00,Wunderground v.1.15,2013-08-03 03:44:00,
2013-08-02 22:50:00,88.5,74.3,29.73,South,171,1.0,2.0,63,0.00,,,0.00,Wunderground v.1.15,2013-08-03 03:50:00,
2013-08-02 22:56:00,88.3,74.1,29.73,SSE,149,1.0,2.0,63,0.00,,,0.00,Wunderground v.1.15,2013-08-03 03:56:00,
2013-08-02 23:02:00,88.2,73.5,29.74,SSE,159,1.0,3.0,62,0.00,,,0.00,Wunderground v.1.15,2013-08-03 04:02:00,
2013-08-02 23:06:00,88.2,73.5,29.74,SSE,161,1.0,4.0,62,0.00,,,0.00,Wunderground v.1.15,2013-08-03 04:06:00,
2013-08-02 23:12:00,88.1,73.4,29.74,SE,146,2.0,3.0,62,0.00,,,0.00,Wunderground v.1.15,2013-08-03 04:12:00,
2013-08-02 23:20:00,88.0,73.3,29.75,SSE,161,1.0,1.0,62,0.00,,,0.00,Wunderground v.1.15,2013-08-03 04:20:00,
2013-08-02 23:24:00,87.9,73.7,29.75,South,178,2.0,3.0,63,0.00,,,0.00,Wunderground v.1.15,2013-08-03 04:24:00,
2013-08-02 23:30:00,87.8,73.6,29.75,SSE,154,2.0,2.0,63,0.00,,,0.00,Wunderground v.1.15,2013-08-03 04:30:00,
2013-08-02 23:36:00,87.7,74.0,29.76,SSE,156,1.0,5.0,64,0.00,,,0.00,Wunderground v.1.15,2013-08-03 04:36:00,
2013-08-02 23:42:00,87.5,73.8,29.76,SSE,166,1.0,1.0,64,0.00,,,0.00,Wunderground v.1.15,2013-08-03 04:42:00,
2013-08-02 23:50:00,87.3,73.6,29.75,South,172,2.0,3.0,64,0.00,,,0.00,Wunderground v.1.15,2013-08-03 04:50:00,
2013-08-02 23:52:00,87.2,73.5,29.75,SSE,157,3.0,6.0,64,0.00,,,0.00,Wunderground v.1.15,2013-08-03 04:52:00,
2013-08-02 23:59:00,87.2,73.5,29.76,SSE,163,2.0,6.0,64,0.00,,,0.00,Wunderground v.1.15,2013-08-03 04:59:00,